Weather History for New Philadelphia, OH

Change the Weather History Date:

Saturday, March 24, 2012

  Actual Average Record
Temperature  
Mean Temperature 63 °F 43 °F  
Max Temperature 67 °F 54 °F 78 °F (1966)
Min Temperature 59 °F 32 °F 13 °F (2014)
Degree Days  
Heating Degree Days 2 22  
Month to date heating degree days 311 634  
Since 1 July heating degree days 2469 4841  
Cooling Degree Days 0 0  
Month to date cooling degree days 13 0  
Year to date cooling degree days 13 0  
Growing Degree Days 10 (Base 50)    
Moisture  
Dew Point 55 °F    
Average Humidity 73    
Maximum Humidity 90    
Minimum Humidity 56    
Precipitation  
Precipitation 0.03 in 0.11 in 0.82 in (1993)
Month to date precipitation 2.23 2.32  
Year to date precipitation 6.60 7.28  
Sea Level Pressure  
Sea Level Pressure 29.84 in    
Wind  
Wind Speed 4 mph (SE)    
Max Wind Speed 10 mph    
Max Gust Speed 14 mph    
Visibility 9 miles    
Events Rain    
T = Trace of Precipitation, MM = Missing Value Source: NWS Daily Summary

Daily Weather History Graph

Daily Weather History Graph

Search for Another Location

Airport:

Trip Planner

Search our weather history database for the weather conditions in past years. The results will help you decide how hot, cold, wet, or windy it might be!

Date:

Astronomy

Mar. 24, 2012 Rise Set
Actual Time 7:21 AM EDT 7:42 PM EDT
Civil Twilight 6:54 AM EDT 8:09 PM EDT
Nautical Twilight 6:22 AM EDT 8:41 PM EDT
Astronomical Twilight 5:49 AM EDT 9:14 PM EDT
Moon 7:59 AM EDT (3/24) 10:01 PM EDT (3/24)
Length of Visible Light 13h 15m
Length of Day
12h 20m
Waxing Crescent, 4% of the Moon is Illuminated
Mar 24
Waxing Crescent
Mar 30
First Quarter
Apr 6
Full
Apr 13
Last Quarter
Apr 21
New

Hourly Weather History & Observations

Time (EDT) Temp. Dew Point Humidity Pressure Visibility Wind Dir Wind Speed Gust Speed Precip Events Conditions
12:36 AM 60.8 °F 59.0 °F 94% 29.90 in 5.0 mi ESE 3.5 mph - 0.03 in Rain Light Rain
12:53 AM 61.0 °F 57.9 °F 90% 29.88 in 9.0 mi ESE 4.6 mph - 0.03 in Rain Light Rain
1:53 AM 61.0 °F 57.9 °F 90% 29.86 in 9.0 mi ESE 3.5 mph - 0.00 in   Overcast
2:15 AM 60.8 °F 57.2 °F 88% 29.88 in 10.0 mi Calm Calm - N/A   Overcast
2:27 AM 62.6 °F 57.2 °F 82% 29.88 in 9.0 mi Calm Calm - 0.00 in Rain Light Rain
2:53 AM 62.1 °F 57.9 °F 86% 29.85 in 9.0 mi East 3.5 mph - 0.00 in   Overcast
3:15 AM 60.8 °F 57.2 °F 88% 29.86 in 7.0 mi Calm Calm - 0.02 in Rain Light Rain
3:45 AM 60.8 °F 57.2 °F 88% 29.86 in 9.0 mi Calm Calm - 0.03 in   Overcast
3:53 AM 61.0 °F 57.9 °F 90% 29.84 in 10.0 mi Calm Calm - 0.03 in   Overcast
4:53 AM 61.0 °F 57.9 °F 90% 29.83 in 8.0 mi ESE 3.5 mph - N/A   Overcast
5:07 AM 60.8 °F 57.2 °F 88% 29.84 in 7.0 mi ESE 4.6 mph - N/A   Overcast
5:53 AM 60.1 °F 57.0 °F 90% 29.83 in 6.0 mi East 4.6 mph - N/A   Mostly Cloudy
6:53 AM 60.1 °F 57.0 °F 90% 29.84 in 7.0 mi SE 3.5 mph - N/A   Mostly Cloudy
7:04 AM 60.8 °F 57.2 °F 88% 29.85 in 7.0 mi SE 5.8 mph - N/A   Overcast
8:02 AM 62.6 °F 57.2 °F 82% 29.86 in 8.0 mi WSW 3.5 mph - N/A   Overcast
8:20 AM 60.8 °F 57.2 °F 88% 29.86 in 10.0 mi Calm Calm - N/A   Overcast
8:53 AM 61.0 °F 57.9 °F 90% 29.85 in 6.0 mi Calm Calm - N/A   Overcast
9:53 AM 62.1 °F 57.9 °F 86% 29.83 in 10.0 mi East 5.8 mph - N/A   Mostly Cloudy
10:53 AM 62.1 °F 55.9 °F 80% 29.85 in 10.0 mi SSE 6.9 mph - N/A   Mostly Cloudy
11:53 AM 62.1 °F 54.0 °F 75% 29.83 in 10.0 mi ESE 4.6 mph - N/A   Mostly Cloudy
12:53 PM 63.0 °F 52.0 °F 67% 29.85 in 10.0 mi SW 4.6 mph - N/A   Mostly Cloudy
1:53 PM 64.9 °F 53.1 °F 65% 29.83 in 10.0 mi SE 3.5 mph - N/A   Partly Cloudy
2:27 PM 66.2 °F 53.6 °F 64% 29.82 in 10.0 mi Calm Calm - N/A   Mostly Cloudy
2:48 PM 66.2 °F 51.8 °F 60% 29.81 in 10.0 mi Calm Calm - N/A   Overcast
2:53 PM 66.9 °F 52.0 °F 59% 29.80 in 10.0 mi Calm Calm - N/A   Overcast
3:53 PM 66.0 °F 50.0 °F 56% 29.81 in 10.0 mi Variable 6.9 mph - N/A   Overcast
4:53 PM 64.9 °F 51.1 °F 61% 29.81 in 10.0 mi WNW 5.8 mph - N/A   Overcast
5:53 PM 64.9 °F 51.1 °F 61% 29.82 in 10.0 mi West 4.6 mph - N/A   Scattered Clouds
6:53 PM 64.0 °F 50.0 °F 60% 29.83 in 10.0 mi WNW 4.6 mph - N/A   Scattered Clouds
7:53 PM 62.1 °F 50.0 °F 65% 29.83 in 10.0 mi West 3.5 mph - N/A   Clear
8:53 PM 57.9 °F 51.1 °F 78% 29.84 in 10.0 mi Calm Calm - N/A   Clear
9:53 PM 57.9 °F 51.1 °F 78% 29.83 in 10.0 mi Calm Calm - N/A   Partly Cloudy
10:53 PM 55.9 °F 51.1 °F 84% 29.85 in 10.0 mi Calm Calm - N/A   Partly Cloudy
11:53 PM 55.0 °F 51.1 °F 86% 29.85 in 8.0 mi Calm Calm - N/A   Clear